Location: Unspecified
(42.9300°N, 71.1866°W)
Time: 08:47:32
(UTC-04:00)

Envisat - Visible Passes

Search period start: 01 July 2015 00:00
Search period end: 11 July 2015 00:00
Orbit: 765 x 766 km, 98.3° (Epoch: 01 July)

Date Brightness Start Highest point End Pass type
(mag) Time Alt. Az. Time Alt. Az. Time Alt. Az.
01 Jul 3.3 21:17:23 10° SSE 21:22:18 54° ENE 21:27:17 10° N visible
01 Jul 5.2 22:58:09 10° SW 23:01:44 19° W 23:05:10 10° NW visible
02 Jul 4.1 22:20:15 11° SSW 22:24:45 40° W 22:29:31 10° NNW visible
03 Jul 3.0 21:43:12 11° SSE 21:48:01 88° WSW 21:53:09 10° NNW visible
03 Jul 5.7 23:27:23 10° W 23:27:56 10° W 23:28:07 10° W visible
04 Jul 3.6 21:06:44 10° SE 21:11:30 43° ENE 21:16:18 10° N visible
04 Jul 4.9 22:46:41 10° SW 22:50:44 23° W 22:54:43 10° NW visible
05 Jul 3.7 22:09:17 12° S 22:13:50 50° W 22:18:47 10° NNW visible
06 Jul 3.0 21:32:14 11° SSE 21:37:10 75° ENE 21:42:16 10° N visible
06 Jul 5.4 23:14:22 10° WSW 23:16:52 13° W 23:19:06 10° WNW visible
07 Jul 3.8 20:56:08 10° SE 21:00:41 35° ENE 21:05:17 10° N visible
07 Jul 4.6 22:35:24 10° SSW 22:39:46 29° W 22:44:08 10° NW visible
08 Jul 3.3 21:58:20 12° S 22:02:56 64° W 22:08:00 10° NNW visible
09 Jul 3.2 21:21:21 10° SSE 21:26:20 60° ENE 21:31:20 10° N visible
09 Jul 5.3 23:02:30 10° SW 23:05:50 17° W 23:08:58 10° NW visible
10 Jul 4.2 22:24:27 12° SSW 22:28:49 36° W 22:33:29 10° NNW visible
